Location: Grand Lay
(47.3253°N, 0.9468°E)
Time: 20:49:17
(UTC+00:00)

BREEZE-M DEB (TANK) - Pass Details

Date: 18 January 2026
Orbit: 359 x 16119 km, 49.4° (Epoch: 18 February)

Event Time Altitude Azimuth Distance (km) Brightness Sun altitude
Exits shadow 04:20:46 76° 272° (W) 1,499 4.1 -32.7°
Maximum altitude 04:21:32 86° 346° (NNW) 1,591 4.4 -32.6°
Drops below altitude 10° 04:46:36 10° 80° (E) 10,047 9.6 -28.4°
Sets 05:03:13 0° 83° (E) 14,312 10.8 -25.5°
